When you browse on this site, cookies collect data to enhance your experience and personalize the content and advertising you see.
Visit our Privacy Policy to learn more. By continuing to use the site, you agree to this use of cookies and data.
  • In Schweiz
  • Länderverzeichnis
  • Für 7 Tage
  • Wassertemperatur
  • Satellitenkarten
  • Wetterkarte
  • Widgets
  • user-avatar
    Anmelden

    Stündliche Wetter Goslar

    Heute, 24 Mai, Freitag

    Zeit Temperatur Niederschläge Wind Luftdruck Luftfeuchtigkeit
    00:00 +10°C° 0 mm 2 m/S 734 mmHg 84%
    01:00 +10°C° 0 mm 2 m/S 734 mmHg 86%
    02:00 +9°C° 0 mm 2 m/S 734 mmHg 88%
    03:00 +9°C° 0 mm 2 m/S 734 mmHg 90%
    04:00 +9°C° 0 mm 2 m/S 734 mmHg 92%
    05:00 +10°C° 0 mm 2 m/S 734 mmHg 88%
    06:00 +12°C° 0 mm 2 m/S 734 mmHg 83%
    07:00 +14°C° 0 mm 2 m/S 734 mmHg 79%
    08:00 +16°C° 0 mm 2 m/S 734 mmHg 72%
    09:00 +17°C° 0 mm 3 m/S 734 mmHg 65%
    10:00 +19°C° 0 mm 3 m/S 734 mmHg 58%
    11:00 +19°C° 0 mm 3 m/S 733 mmHg 57%
    12:00 +20°C° 0 mm 3 m/S 733 mmHg 57%
    13:00 +20°C° 0 mm 3 m/S 733 mmHg 56%
    14:00 +20°C° 0.4 mm 3 m/S 733 mmHg 62%
    15:00 +20°C° 0.4 mm 3 m/S 732 mmHg 68%
    16:00 +19°C° 0.4 mm 3 m/S 732 mmHg 73%
    17:00 +18°C° 0.6 mm 3 m/S 732 mmHg 78%
    18:00 +17°C° 0.6 mm 3 m/S 732 mmHg 84%
    19:00 +16°C° 0.6 mm 2 m/S 732 mmHg 89%
    20:00 +15°C° 0 mm 2 m/S 732 mmHg 91%
    21:00 +13°C° 0 mm 2 m/S 732 mmHg 93%
    22:00 +12°C° 0 mm 1 m/S 732 mmHg 96%
    23:00 +11°C° 0 mm 1 m/S 732 mmHg 96%

    Morgen, 25 Mai, Samstag

    Zeit Temperatur Niederschläge Wind Luftdruck Luftfeuchtigkeit
    00:00 +10°C° 0 mm 1 m/S 732 mmHg 96%
    01:00 +9°C° 0 mm 1 m/S 733 mmHg 96%
    02:00 +9°C° 0 mm 1 m/S 733 mmHg 96%
    03:00 +8°C° 0 mm 1 m/S 733 mmHg 96%
    04:00 +7°C° 0 mm 1 m/S 733 mmHg 96%
    05:00 +8°C° 0 mm 1 m/S 733 mmHg 94%
    06:00 +9°C° 0 mm 2 m/S 733 mmHg 93%
    07:00 +10°C° 0 mm 2 m/S 733 mmHg 91%
    08:00 +12°C° 0 mm 2 m/S 733 mmHg 86%
    09:00 +11°C° 0 mm 3 m/S 734 mmHg 81%
    10:00 +12°C° 0 mm 3 m/S 734 mmHg 76%
    11:00 +13°C° 0 mm 3 m/S 734 mmHg 76%
    12:00 +13°C° 0 mm 3 m/S 733 mmHg 75%
    13:00 +13°C° 0 mm 3 m/S 733 mmHg 74%
    14:00 +13°C° 0 mm 3 m/S 733 mmHg 74%
    15:00 +13°C° 0 mm 3 m/S 733 mmHg 74%
    16:00 +13°C° 0 mm 3 m/S 732 mmHg 73%
    17:00 +13°C° 0 mm 3 m/S 732 mmHg 76%
    18:00 +13°C° 0 mm 2 m/S 732 mmHg 79%
    19:00 +13°C° 0 mm 2 m/S 732 mmHg 82%
    20:00 +11°C° 0 mm 1 m/S 732 mmHg 86%
    21:00 +10°C° 0 mm 1 m/S 732 mmHg 90%
    22:00 +8°C° 0 mm 1 m/S 732 mmHg 94%
    23:00 +8°C° 0 mm 1 m/S 732 mmHg 94%

    übermorgen, 26 Mai, Sonntag

    Zeit Temperatur Niederschläge Wind Luftdruck Luftfeuchtigkeit
    00:00 +8°C° 0 mm 1 m/S 732 mmHg 94%
    01:00 +8°C° 0 mm 1 m/S 732 mmHg 95%
    02:00 +7°C° 0 mm 2 m/S 732 mmHg 95%
    03:00 +7°C° 0 mm 2 m/S 732 mmHg 95%
    04:00 +7°C° 0 mm 2 m/S 731 mmHg 96%
    05:00 +8°C° 0 mm 3 m/S 731 mmHg 94%
    06:00 +9°C° 0 mm 3 m/S 731 mmHg 91%
    07:00 +10°C° 0 mm 4 m/S 731 mmHg 89%
    08:00 +11°C° 0 mm 4 m/S 731 mmHg 86%
    09:00 +12°C° 0 mm 4 m/S 731 mmHg 82%
    10:00 +12°C° 0 mm 5 m/S 731 mmHg 79%
    11:00 +13°C° 0 mm 5 m/S 731 mmHg 77%
    12:00 +14°C° 0 mm 5 m/S 731 mmHg 76%
    13:00 +14°C° 0 mm 6 m/S 731 mmHg 75%
    14:00 +14°C° 0.1 mm 5 m/S 730 mmHg 79%
    15:00 +14°C° 0.1 mm 5 m/S 730 mmHg 83%
    16:00 +14°C° 0.1 mm 5 m/S 730 mmHg 87%
    17:00 +14°C° 0 mm 5 m/S 730 mmHg 87%
    18:00 +14°C° 0 mm 4 m/S 729 mmHg 88%
    19:00 +14°C° 0 mm 4 m/S 729 mmHg 88%
    20:00 +13°C° 0.1 mm 4 m/S 729 mmHg 90%
    21:00 +13°C° 0.1 mm 4 m/S 729 mmHg 92%
    22:00 +13°C° 0.1 mm 4 m/S 728 mmHg 93%
    23:00 +13°C° 0.1 mm 4 m/S 728 mmHg 93%

    27 Mai, Montag

    Zeit Temperatur Niederschläge Wind Luftdruck Luftfeuchtigkeit
    00:00 +13°C° 0.1 mm 5 m/S 728 mmHg 93%
    01:00 +12°C° 0.1 mm 5 m/S 727 mmHg 92%
    02:00 +12°C° 0.3 mm 5 m/S 727 mmHg 93%
    03:00 +12°C° 0.3 mm 5 m/S 727 mmHg 94%
    04:00 +12°C° 0.3 mm 5 m/S 726 mmHg 94%
    05:00 +12°C° 0.7 mm 5 m/S 726 mmHg 95%
    06:00 +12°C° 0.7 mm 5 m/S 726 mmHg 95%
    07:00 +12°C° 0.7 mm 5 m/S 726 mmHg 95%
    08:00 +13°C° 0.4 mm 5 m/S 727 mmHg 91%
    09:00 +13°C° 0.4 mm 6 m/S 727 mmHg 86%
    10:00 +14°C° 0.4 mm 7 m/S 727 mmHg 81%
    11:00 +15°C° 0.1 mm 7 m/S 727 mmHg 75%
    12:00 +15°C° 0.1 mm 7 m/S 728 mmHg 69%
    13:00 +16°C° 0.1 mm 6 m/S 728 mmHg 63%
    14:00 +16°C° 0.1 mm 6 m/S 728 mmHg 65%
    15:00 +16°C° 0.1 mm 6 m/S 728 mmHg 67%
    16:00 +15°C° 0.1 mm 5 m/S 728 mmHg 69%
    17:00 +14°C° 0.1 mm 4 m/S 728 mmHg 73%
    18:00 +14°C° 0.1 mm 4 m/S 728 mmHg 77%
    19:00 +13°C° 0.1 mm 3 m/S 728 mmHg 80%
    20:00 +12°C° 0 mm 2 m/S 728 mmHg 84%
    21:00 +10°C° 0 mm 2 m/S 728 mmHg 87%
    22:00 +8°C° 0 mm 2 m/S 728 mmHg 90%
    23:00 +8°C° 0 mm 2 m/S 728 mmHg 90%

    28 Mai, Dienstag

    Zeit Temperatur Niederschläge Wind Luftdruck Luftfeuchtigkeit
    00:00 +7°C° 0 mm 2 m/S 728 mmHg 91%
    01:00 +6°C° 0 mm 2 m/S 728 mmHg 91%
    02:00 +6°C° 0 mm 2 m/S 728 mmHg 91%
    03:00 +6°C° 0 mm 2 m/S 728 mmHg 91%
    04:00 +6°C° 0 mm 2 m/S 728 mmHg 90%
    05:00 +8°C° 0 mm 1 m/S 728 mmHg 87%
    06:00 +10°C° 0 mm 1 m/S 728 mmHg 84%
    07:00 +11°C° 0 mm 1 m/S 728 mmHg 81%
    08:00 +12°C° 0.1 mm 1 m/S 728 mmHg 79%
    09:00 +13°C° 0.1 mm 1 m/S 728 mmHg 76%
    10:00 +14°C° 0.1 mm 1 m/S 728 mmHg 74%
    11:00 +14°C° 0.6 mm 1 m/S 728 mmHg 76%
    12:00 +14°C° 0.6 mm 1 m/S 728 mmHg 78%
    13:00 +14°C° 0.6 mm 2 m/S 728 mmHg 80%
    14:00 +14°C° 0.6 mm 2 m/S 728 mmHg 82%
    15:00 +13°C° 0.6 mm 3 m/S 728 mmHg 85%
    16:00 +13°C° 0.6 mm 3 m/S 729 mmHg 87%
    17:00 +12°C° 0.4 mm 3 m/S 729 mmHg 89%
    18:00 +11°C° 0.4 mm 3 m/S 729 mmHg 91%
    19:00 +11°C° 0.4 mm 3 m/S 730 mmHg 93%
    20:00 +10°C° 0.1 mm 3 m/S 730 mmHg 93%
    21:00 +9°C° 0.1 mm 3 m/S 731 mmHg 93%
    22:00 +8°C° 0.1 mm 3 m/S 732 mmHg 94%
    23:00 +7°C° 0 mm 3 m/S 732 mmHg 93%

    29 Mai, Mittwoch

    Zeit Temperatur Niederschläge Wind Luftdruck Luftfeuchtigkeit
    00:00 +7°C° 0 mm 3 m/S 732 mmHg 93%
    01:00 +5°C° 0 mm 3 m/S 732 mmHg 93%
    02:00 +6°C° 0 mm 2 m/S 733 mmHg 93%
    03:00 +5°C° 0 mm 2 m/S 733 mmHg 92%
    04:00 +4°C° 0 mm 2 m/S 733 mmHg 92%
    05:00 +5°C° 0 mm 2 m/S 733 mmHg 89%
    06:00 +5°C° 0 mm 2 m/S 733 mmHg 86%
    07:00 +6°C° 0 mm 2 m/S 734 mmHg 83%
    08:00 +7°C° 0 mm 2 m/S 734 mmHg 74%
    09:00 +9°C° 0 mm 2 m/S 734 mmHg 66%
    10:00 +10°C° 0 mm 2 m/S 734 mmHg 57%
    11:00 +12°C° 0 mm 2 m/S 734 mmHg 55%
    12:00 +13°C° 0 mm 2 m/S 734 mmHg 54%
    13:00 +14°C° 0 mm 2 m/S 734 mmHg 52%
    14:00 +13°C° 0 mm 2 m/S 733 mmHg 55%
    15:00 +13°C° 0 mm 2 m/S 733 mmHg 58%
    16:00 +12°C° 0 mm 3 m/S 733 mmHg 61%
    17:00 +13°C° 0 mm 2 m/S 733 mmHg 65%
    18:00 +12°C° 0 mm 2 m/S 733 mmHg 68%
    19:00 +12°C° 0 mm 2 m/S 733 mmHg 71%
    20:00 +9°C° 0 mm 2 m/S 733 mmHg 75%
    21:00 +8°C° 0 mm 2 m/S 733 mmHg 79%
    22:00 +6°C° 0 mm 2 m/S 733 mmHg 82%
    23:00 +6°C° 0 mm 2 m/S 733 mmHg 83%
    Mehr zeigen